OneWeb SL0020

operational
NORAD ID: 45133 Int'l Des: 2020-008 Owner: ONEWEB Country: UK Constellation: oneweb
LEOCIRCULARPOLARONEWEB_TYPE

About OneWeb SL0020

Description loading...

Live Position

Loading 3D Globe...

Upcoming Passes

Altitude History

Altitude vs Time

uPlot chart will show altitude changes over time

Two-Line Element Set

1 45133U 20008C 25303.13377751 .00000212 00000-0 57046-3 0 9993
2 45133 87.8785 82.1195 0001631 88.8381 271.2934 13.10375373278215
Epoch: Oct 30, 2025 • Age: 21 hours

Current Status

Altitude 1225.3 km
Velocity 7.24 km/s
Sub-Earth Point 32.24°N, 140.75°W
Launch Date Feb 6, 2020
Age 5.7 years
Type internet

Technical Details

Classification Payload
Mass 148.00 kg
Dry Mass 140.00 kg
Total Mass 148.00 kg
Length 1.30 m
Diameter 1.00 m
Span 5.00 m
Shape Trapezoid+2 pan
Manufacturer ONEWUS
Bus Type ARROW
Phase Status In Orbit
Owner/State ONEWEB/UK

Large Constellations

Loading constellations...